Regional Weather Roundup
Issued by NWS Columbia, SC

Current Version | Previous Version | Text Only | Print | Product List | Glossary On
Versions: 1 2 3 4 5 6 7 8 9 10 11 12 13 14 15 16 17 18 19 20 21 22 23 24 25 26 27 28 29 30 31 32 33 34 35 36 37 38 39 40 41 42 43 44 45 46 47 48 49 50
000
ASUS42 KCAE 181810
RWRCAE
REGIONAL WEATHER ROUNDUP
NATIONAL WEATHER SERVICE COLUMBIA SC
100 PM EST SUN FEB 18 2018

NOTE: "FAIR" INDICATES FEW OR NO CLOUDS BELOW 12,000 FEET WITH NO
SIGNIFICANT WEATHER AND/OR OBSTRUCTIONS TO VISIBILITY.

NOT ALL STATIONS ARE QUALITY CONTROLLED BY THE NATIONAL
WEATHER SERVICE. USE DATA WITH CAUTION...ESPECIALLY
DEWPOINT OBSERVATIONS.

SCZ001>056-GAZ040-063>065-077-181900-
...UPSTATE SOUTH CAROLINA...

CITY           SKY/WX    TMP DP  RH WIND       PRES   REMARKS
ANDERSON       FAIR      63  42  46 E12       30.29F
6HR MIN TEMP:  49; 6HR MAX TEMP:  63;

LIBERTY        FAIR      63  41  44 E7        30.29F
6HR MIN TEMP:  45; 6HR MAX TEMP:  63;

SPARTANBURG    FAIR      61  36  39 NE7       30.31F
CLEMSON        FAIR      60  41  49 SE7       30.30F
6HR MIN TEMP:  48; 6HR MAX TEMP:  61;

GREENVILLE     FAIR      61  38  42 SE8       30.31F
6HR MIN TEMP:  45; 6HR MAX TEMP:  62;

GREENWOOD      FAIR      63  45  51 MISG      30.31F
6HR MIN TEMP:  49; 6HR MAX TEMP:  63;

GREER          FAIR      61  39  44 E9        30.31F
6HR MIN TEMP:  40; 6HR MAX TEMP:  61;

ROCK HILL      FAIR      60  39  45 VRB7      30.34F
6HR MIN TEMP:  43; 6HR MAX TEMP:  61;

CHESTER        FAIR      61  36  39 NE8       30.34F
LAURENS        FAIR      61  41  48 E8G24     30.31F


...CENTRAL SOUTH CAROLINA...

CITY           SKY/WX    TMP DP  RH WIND       PRES   REMARKS
COLUMBIA APT   PTSUNNY   66  48  52 E10       30.30F
6HR MIN TEMP:  54; 6HR MAX TEMP:  67;

COLUMBIA OWENS CLOUDY    65  44  46 E5        30.31F
6HR MIN TEMP:  52; 6HR MAX TEMP:  66;

MCENTIRE ANGB  PTSUNNY   65  45  48 E12       30.31S
6HR MIN TEMP:  50; 6HR MAX TEMP:  67;

ORANGEBURG     LGT RAIN  64  48  56 E8        30.30F
6HR MIN TEMP:  56; 6HR MAX TEMP:  66; 6HR PCP: TRACE;

SUMTER SHAW    CLOUDY    65  44  47 NE10      30.29F
6HR MIN TEMP:  52; 6HR MAX TEMP:  65;

NEWBERRY       FAIR      64  45  48 E7        30.33F
AIKEN          CLOUDY    63  46  55 NE8       30.33F
BARNWELL         N/A     70  54  56 NE9       30.28F
MANNING        CLOUDY    64  25  22 MISG      30.31S
CAMDEN         FAIR      64  43  45 VRB7G15   30.33S
LANCASTER      FAIR      61  37  41 NE8       30.34F
WINNSBORO      FAIR      64  45  48 NE9       30.31F


...EASTERN AND COASTAL SOUTH CAROLINA...

CITY           SKY/WX    TMP DP  RH WIND       PRES   REMARKS
MYRTLE BEACH   PTSUNNY   60  52  74 E14       30.33S
6HR MIN TEMP:  59; 6HR MAX TEMP:  63;

N MYRTLE BCH   CLOUDY    60  52  74 E10       30.32R
6HR MIN TEMP:  57; 6HR MAX TEMP:  67;

CONWAY         MOCLDY    64  46  52 NE9       30.32F
MARION         FAIR      63  45  51 E7        30.33S
HARTSVILLE     FAIR      63  41  45 NE8G17    30.32F
FLORENCE       FAIR      66  44  45 NE9       30.32F
6HR MIN TEMP:  52; 6HR MAX TEMP:  66;

DARLINGTON     FAIR      65  44  46 NE8       30.33F
6HR MIN TEMP:  48; 6HR MAX TEMP:  65;

CHARLESTON APT CLOUDY    66  58  75 NE9       30.29S
6HR MIN TEMP:  61; 6HR MAX TEMP:  68;

MOUNT PLEASANT CLOUDY    63  52  67 NE5       30.31R
WALTERBORO     CLOUDY    64  54  68 NE7       30.30S
BEAUFORT       CLOUDY    68  60  75 NE8       30.27
6HR MIN TEMP:  64; 6HR MAX TEMP:  71;



...EASTERN GEORGIA...

CITY           SKY/WX    TMP DP  RH WIND       PRES   REMARKS
AUGUSTA BUSH F CLOUDY    67  48  50 E6        30.28F
6HR MIN TEMP:  59; 6HR MAX TEMP:  68;

AUGUSTA DANIEL CLOUDY    65  49  56 E9        30.29F
6HR MIN TEMP:  58; 6HR MAX TEMP:  65;

THOMSON        CLOUDY    63  52  66 S7        30.34S
6HR MIN TEMP:  56; 6HR MAX TEMP:  64;

WASHINGTON     FAIR      64  50  59 E8        30.28F
CLAXTON        MOCLDY    72  64  74 CALM      30.26F
6HR MIN TEMP:  57; 6HR MAX TEMP:  72;

SYLVANIA       CLOUDY    69  62  79 E7        30.27F
6HR MIN TEMP:  60; 6HR MAX TEMP:  70;

STATESBORO     CLOUDY    68  58  68 NE6       30.27F
6HR MIN TEMP:  57; 6HR MAX TEMP:  69;

SAVANNAH       CLOUDY    70  62  76 N3        30.26F
6HR MIN TEMP:  59; 6HR MAX TEMP:  70;



...SOUTHERN NORTH CAROLINA...

CITY           SKY/WX    TMP DP  RH WIND       PRES   REMARKS
CHARLOTTE      FAIR      60  36  40 E8        30.34F
6HR MIN TEMP:  42; 6HR MAX TEMP:  60;

MONROE         FAIR      60  37  42 VRB5      30.33F
6HR MIN TEMP:  44; 6HR MAX TEMP:  60;

WADESBORO      FAIR      62  32  32 N7        30.34F
6HR MIN TEMP:  41; 6HR MAX TEMP:  62;

ROCKINGHAM     FAIR      61  37  40 E7        30.33F
6HR MIN TEMP:  45; 6HR MAX TEMP:  61;

RUTHERFORDTON  FAIR      61  38  42 SE9       30.32F
6HR MIN TEMP:  35; 6HR MAX TEMP:  61;

ASHEVILLE      FAIR      57  28  33 SE5       30.29F
6HR MIN TEMP:  42; 6HR MAX TEMP:  57;


$$



USA.gov is the U.S. government's official web portal to all federal, state and local government web resources and services.